This is the latest recevied weather packets stored in our database for station/object IZ5TJI-3. If no packets are shown the sender has not sent any weather packets the latest 10 day(s).
| Time | Temp. | Humidity | Pressure | Rain* | Wind** | Luminosity | Snow |
|---|---|---|---|---|---|---|---|
| 1777932017 | 13.33° C | 72% | 1015.9 hPa | 0 mm | - | - | - |
| 1777931117 | 13.33° C | 70% | 1016.1 hPa | 0 mm | - | - | - |
| 1777930217 | 13.89° C | 70% | 1016.3 hPa | 0 mm | - | - | - |
| 1777929317 | 13.89° C | 69% | 1016.1 hPa | 0 mm | - | - | - |
| 1777928417 | 13.89° C | 68% | 1016.2 hPa | 0 mm | - | - | - |
| 1777927517 | 14.44° C | 66% | 1016.4 hPa | 0 mm | - | - | - |
| 1777926617 | 15° C | 65% | 1016.2 hPa | 0 mm | - | - | - |
| 1777925717 | 15° C | 65% | 1016.3 hPa | 0 mm | - | - | - |
| 1777924817 | 15° C | 64% | 1016.2 hPa | 0 mm | - | - | - |
| 1777923917 | 15.56° C | 61% | 1016.1 hPa | 0 mm | - | - | - |
| 1777923017 | 16.11° C | 57% | 1016 hPa | 0 mm | - | - | - |
| 1777922117 | 16.67° C | 56% | 1015.9 hPa | 0 mm | - | - | - |
| 1777921217 | 17.22° C | 55% | 1015.9 hPa | 0 mm | - | - | - |
| 1777920317 | 17.78° C | 54% | 1015.6 hPa | 0 mm | - | - | - |
| 1777919417 | 17.78° C | 53% | 1015.5 hPa | 0 mm | - | - | - |
| 1777918517 | 18.33° C | 53% | 1015.6 hPa | 0 mm | - | - | - |
| 1777917617 | 18.33° C | 51% | 1015.7 hPa | 0 mm | - | - | - |
| 1777916717 | 18.89° C | 50% | 1015.6 hPa | 0 mm | - | - | - |
| 1777915817 | 18.89° C | 49% | 1015.6 hPa | 0 mm | - | - | - |
| 1777914917 | 19.44° C | 47% | 1015.5 hPa | 0 mm | - | - | - |
| 1777914017 | 20° C | 45% | 1015.2 hPa | 0 mm | - | - | - |
| 1777913117 | 20° C | 49% | 1015.4 hPa | 0 mm | - | - | - |
| 1777912217 | 20.56° C | 49% | 1015.4 hPa | 0 mm | - | - | - |
| 1777911317 | 20.56° C | 51% | 1015.3 hPa | 0 mm | - | - | - |
| 1777910417 | 20.56° C | 53% | 1015.5 hPa | 0 mm | - | - | - |
* Rain latest hour (hover to see other rain measurements)
** Current wind speed in m/s (hover to see current wind gust speed)